Regional Weather Roundup
Issued by NWS

Home | Current Version | Previous Version | Graphics & Text | Print | Product List | Glossary On
Versions: 1 2 3 4 5 6 7 8 9 10 11 12 13 14 15 16 17 18 19 20 21 22 23 24 25 26 27 28 29 30 31 32 33 34 35 36 37 38 39 40 41 42 43 44 45 46 47 48 49 50
000
ASUS45 KSLC 202210
RWRUT

UTAH REGIONAL WEATHER ROUNDUP
NATIONAL WEATHER SERVICE SALT LAKE CITY UT
300 PM MST SAT DEC 20 2014

UTZ001>011-023>025-202300-

NORTHERN UTAH

CITY           SKY/WX    TMP DP  RH WIND       PRES   REMARKS
BRIGHAM CITY   CLOUDY    40  36  84 S3        30.07S
HILL AFB       CLOUDY    37  37  99 S12       30.06S WCI  29
LOGAN          CLOUDY    40  35  83 CALM      30.04F
OGDEN          CLOUDY    37  36  96 SE8       30.06F WCI  31
PROVO AIRPORT  CLOUDY    39  34  81 CALM      30.09F
SALT LAKE CITY LGT RAIN  41  36  82 S5        30.07F
VERNAL         LGT SNOW  29  26  89 E5        30.10S FOG     WCI  24
WENDOVER       CLOUDY    37  28  70 CALM      30.06F
HEBER CITY     CLOUDY    36  32  87 CALM      30.05S
WEST JORDAN    CLOUDY    37  37 100 SE12      30.08F WCI  30

$$

UTZ012>022-026-027-202300-

SOUTHERN/CENTRAL UTAH

CITY           SKY/WX    TMP DP  RH WIND       PRES   REMARKS
BLANDING       CLOUDY    34  31  88 CALM      30.18F
BRYCE CANYON   CLOUDY    32  22  66 SE9       30.08F WCI  24
CEDAR CITY     CLOUDY    41  29  62 SW6       30.08S
DELTA          CLOUDY    41  32  69 E3        30.08S
MILFORD        CLOUDY    42  30  62 S16       30.06S
MOAB/CYNLANDS  CLOUDY    37  32  82 CALM      30.11F
PRICE          CLOUDY    32  26  78 CALM      30.10F HAZE
ST GEORGE      CLOUDY    48  32  53 SE5       30.11F

$$

REGIONAL REPORTS     COLORADO/ARIZONA

CITY           SKY/WX    TMP DP  RH WIND       PRES   REMARKS
CRAIG, CO      CLOUDY    33  25  72 E3        30.06F
GRAND JUNCTION CLOUDY    37  27  67 NW7       30.12S WCI  32
RIFLE          CLOUDY    35  23  61 CALM      30.10F
MONTROSE       PTSUNNY   39  22  50 NW6       30.09F WCI  35
CORTEZ         SUNNY     40  27  59 W8        30.10F WCI  34
PAGE, AZ       CLOUDY    41  30  65 W3        30.13F
GRAND CANYON   MOSUNNY   43  22  43 SW9       30.11F
KINGMAN        PTSUNNY   55  28  35 SW10      30.10F
FLAGSTAFF      MOSUNNY   45  27  49 SW10      30.11F

$$

REGIONAL REPORTS    NEVADA/IDAHO/WYOMING

CITY           SKY/WX    TMP DP  RH WIND       PRES   REMARKS
LAS VEGAS, NV  PTSUNNY   55  37  50 CALM      30.06F
ELY            CLOUDY    39  31  72 NW5       30.09S
ELKO           CLOUDY    38  36  92 SW6       30.06F WCI  33
POCATELLO, ID  CLOUDY    41  34  76 S15       30.00F
BURLEY         CLOUDY    42  36  79 S10       29.97F
EVANSTON, WY   CLOUDY    31  30  96 SW20      30.00S WCI  19
ROCK SPRINGS   LGT SNOW  30  29  96 SW12      29.99F VSB 3/4 WCI  20
KEMMERER       CLOUDY    32  30  93 W17       30.00R WCI  21

$$


USA.gov is the U.S. government's official web portal to all federal, state and local government web resources and services.